This demonstration page uses our WeatherBlox Daily Observations layout. Learn more.

Left ArrowRight Arrow

34.74481, -87.66753

Hourly Observations for May 12, 2017

Temp ( °F °C ) Dew Point ( °F °C ) Humidity (%) Winds ( mph kmh ) Pressure ( in mb ) Visibility ( mi km ) Precip ( " mm )
12:53 am 00:53 Clear 71 21.7 64 17.8 79 79 WSW 5 7 29.85 1011 10 16 0.00 0.00
1:53 am 01:53 Cloudy 71 21.7 64 17.8 79 79 SSW 3 6 29.85 1011 10 16 0.00 0.00
2:53 am 02:53 Mostly Cloudy 69 20.6 64 17.8 84 84 WNW 3 6 29.83 1010 10 16 0.00 0.00
3:17 am 03:17 Mostly Cloudy 70 21.1 64 17.8 82 82 Calm 29.83 1010 10 16 0.00 0.00
3:53 am 03:53 Cloudy 70 21.1 65 18.3 84 84 WSW 3 6 29.83 1010 10 16 0.00 0.03
4:31 am 04:31 Cloudy 68 20 60 15.6 76 76 VRB 7 11 29.83 1010 10 16 0.00 0.00
4:53 am 04:53 Mostly Cloudy 67 19.4 60 15.6 79 79 VRB 3 6 29.85 1011 10 16 0.00 0.00
5:53 am 05:53 Cloudy 64 17.8 61 16.1 90 90 NW 5 7 29.85 1011 10 16 0.03 0.76
6:53 am 06:53 Cloudy 65 18.3 62 16.7 90 90 ESE 5 7 29.82 1010 10 16 0.00 0.00
7:53 am 07:53 Mostly Cloudy 66 18.9 62 16.7 87 87 SSE 3 6 29.80 1009 10 16 0.00 0.00
8:53 am 08:53 Cloudy 68 20 63 17.2 84 84 SW 3 6 29.81 1010 10 16 0.00 0.00
9:53 am 09:53 Cloudy 68 20 63 17.2 84 84 W 5 7 29.84 1011 10 16 0.00 0.00
10:53 am 10:53 Mostly Cloudy 69 20.6 63 17.2 81 81 SW 3 6 29.85 1011 10 16 0.01 0.25
11:53 am 11:53 Mostly Sunny 71 21.7 61 16.1 71 71 SSE 5 7 29.82 1010 10 16 0.00 0.00
12:53 pm 12:53 Sunny 73 22.8 61 16.1 66 66 VRB 3 6 29.79 1009 10 16 0.00 0.00
1:40 pm 13:40 Mostly Cloudy 73 22.8 62 16.7 69 69 ESE 3 6 29.80 1009 10 16 0.00 0.00
1:53 pm 13:53 Cloudy 73 22.8 62 16.7 69 69 S 5 7 29.79 1009 10 16 0.00 0.00
2:12 pm 14:12 Mostly Cloudy 74 23.3 61 16.1 64 64 Calm 29.80 1009 10 16 0.00 0.00
2:53 pm 14:53 Partly Cloudy 76 24.4 62 16.7 62 62 VRB 3 6 29.78 1008 10 16 0.00 0.00
3:53 pm 15:53 Sunny 76 24.4 61 16.1 60 60 NE 5 7 29.76 1008 10 16 0.00 0.00
4:53 pm 16:53 Mostly Cloudy 76 24.4 62 16.7 62 62 E 7 11 29.74 1007 10 16 0.00 0.00
5:53 pm 17:53 Mostly Cloudy 74 23.3 62 16.7 67 67 E 3 6 29.73 1007 10 16 0.00 0.00
6:38 pm 18:38 Mostly Cloudy with Nearby Thunderstorms 73 22.8 61 16.1 66 66 ENE 3 6 29.77 1008 10 16 0.00 0.00
6:53 pm 18:53 Mostly Cloudy with Nearby Thunderstorms 72 22.2 61 16.1 68 68 ENE 3 6 29.75 1007 10 16 0.00 0.00
7:43 pm 19:43 Mostly Cloudy 70 21.1 62 16.7 76 76 Calm 29.77 1008 10 16 0.00 0.00
7:53 pm 19:53 Mostly Cloudy 70 21.1 63 17.2 79 79 NNW 5 7 29.76 1008 10 16 0.00 0.00
8:53 pm 20:53 Mostly Cloudy 70 21.1 63 17.2 79 79 NE 5 7 29.76 1008 10 16 0.00 0.00
9:53 pm 21:53 Mostly Clear 68 20 60 15.6 76 76 NE 6 9 29.78 1008 10 16 0.00 0.00
10:53 pm 22:53 Partly Cloudy 67 19.4 61 16.1 81 81 N 5 7 29.78 1009 10 16 0.00 0.00
11:53 pm 23:53 Partly Cloudy 66 18.9 60 15.6 81 81 VRB 6 9 29.77 1008 10 16 0.00 0.00

Powered by AerisWeather